Date String (YYYY-MM-DD hh:mm:ss) UTC,Instrument flags,absolute air pressure of the measurement (hPa),sample flow rate (lpm),inlet stack bypass flow (lpm),air temperature of the measurement (°C),ambient temperature measured by the external sensor (°C),aerosol sample conditioner tube jacket temperature (°C),OPC LED temperature (°C),internal box temperature (°C),relative humidity of the measurement (%),span deviation,mass concentration of particles derived from Lorenz-Mie calculation of OPC scattering (μg/m³),mass concentration of particles derived from Lorenz-Mie calculation of OPC scattering (μg/m³),mass concentration of particles derived from Lorenz-Mie calculation of OPC scattering (μg/m³)
DateTimeUTC,F1_M11,P_M11,Q1_M11,Q2_M11,T1_M11,T2_M11,T3_M11,T4_M11,T5_M11,U1_M11,ZSPAN_M11,X0_M11,X2_M11,X1_M11
2024-01-11 08:00:00,SystemResetWarning,0808.9,5.01,000.00,018.9,018.6,000.0,027.2,020.2,9.7,0000.0,0002.70,0002.10,0001.83
2024-01-11 08:01:00,SystemResetWarning,0808.8,5.00,000.00,018.9,018.5,000.0,027.2,020.1,9.7,0000.0,0002.74,0002.11,0001.83
2024-01-11 08:02:00,SystemResetWarning,0808.8,5.00,000.00,018.9,018.3,000.0,027.2,020.1,9.7,0000.0,0002.71,0002.10,0001.83
2024-01-11 08:03:00,SystemResetWarning,0808.8,5.01,000.00,018.8,018.2,000.0,027.1,020.0,9.8,0000.0,0002.73,0002.10,0001.84
2024-01-11 08:04:00,SystemResetWarning,0808.7,5.00,000.00,018.8,018.1,000.0,027.2,020.0,9.8,0000.0,0002.76,0002.12,0001.86
2024-01-11 08:05:00,SystemResetWarning,0808.6,5.00,000.00,018.8,018.0,000.0,027.2,020.0,9.8,0000.0,0002.82,0002.14,0001.88
2024-01-11 08:06:00,SystemResetWarning,0808.6,5.00,000.00,018.8,017.9,000.0,027.2,020.0,9.8,0000.0,0002.92,0002.19,0001.91
2024-01-11 08:07:00,SystemResetWarning,0808.6,5.00,000.00,018.8,017.9,000.0,027.2,020.0,9.8,0000.0,0003.02,0002.24,0001.94
2024-01-11 08:08:00,SystemResetWarning,0808.6,5.00,000.00,018.8,017.8,000.0,027.2,020.0,9.8,0000.0,0003.03,0002.25,0001.96
2024-01-11 08:09:00,SystemResetWarning,0808.6,5.00,000.00,018.8,017.8,000.0,027.2,020.0,9.8,0000.0,0003.07,0002.29,0002.00
2024-01-11 08:10:00,SystemResetWarning,0808.6,5.00,000.00,018.7,017.8,000.0,027.2,020.0,9.8,0000.0,0003.10,0002.31,0002.03
2024-01-11 08:11:00,SystemResetWarning,0808.6,5.00,000.00,018.7,017.7,000.0,027.2,020.0,9.8,0000.0,0003.74,0002.32,0002.03
2024-01-11 08:12:00,SystemResetWarning,0808.6,5.00,000.00,018.7,017.7,000.0,027.2,020.0,9.8,0000.0,0003.85,0002.35,0002.05
2024-01-11 08:13:00,SystemResetWarning,0808.6,5.00,000.00,018.7,017.7,000.0,027.2,020.0,9.8,0000.0,0003.97,0002.42,0002.08
2024-01-11 08:14:00,SystemResetWarning,0808.6,5.00,000.00,018.7,017.7,000.0,027.2,020.0,9.9,0000.0,0004.01,0002.45,0002.11
2024-01-11 08:15:00,SystemResetWarning,0808.6,5.00,000.00,018.7,017.6,000.0,027.2,020.0,9.9,0000.0,0003.94,0002.44,0002.12
2024-01-11 08:16:00,SystemResetWarning,0808.6,5.00,000.00,018.7,017.6,000.0,027.2,020.0,9.9,0000.0,0003.93,0002.46,0002.14
2024-01-11 08:17:00,SystemResetWarning,0808.6,5.00,000.00,018.7,017.6,000.0,027.2,020.0,10.0,0000.0,0004.26,0002.51,0002.16
2024-01-11 08:18:00,SystemResetWarning,0808.6,5.00,000.00,018.7,017.6,000.0,027.2,020.0,10.0,0000.0,0005.09,0002.54,0002.19
2024-01-11 08:19:00,SystemResetWarning,0808.5,4.99,000.00,018.7,017.6,000.0,027.2,020.0,10.0,0000.0,0005.21,0002.58,0002.20
2024-01-11 08:20:00,SystemResetWarning,0808.5,5.00,000.00,018.7,017.5,000.0,027.2,020.0,10.0,0000.0,0005.33,0002.58,0002.20
2024-01-11 08:21:00,SystemResetWarning,0808.5,5.00,000.00,018.7,017.5,000.0,027.2,020.0,10.1,0000.0,0005.40,0002.59,0002.21
2024-01-11 08:22:00,SystemResetWarning,0808.5,5.00,000.00,018.7,017.5,000.0,027.2,020.0,10.1,0000.0,0004.86,0002.57,0002.21
2024-01-11 08:23:00,SystemResetWarning,0808.4,5.00,000.00,018.7,017.5,000.0,027.2,020.0,10.1,0000.0,0004.74,0002.56,0002.21
2024-01-11 08:24:00,SystemResetWarning,0808.4,5.00,000.00,018.7,017.5,000.0,027.2,020.0,10.0,0000.0,0005.14,0002.53,0002.21
2024-01-11 08:25:00,SystemResetWarning,0808.4,5.01,000.00,018.7,017.5,000.0,027.2,020.0,10.0,0000.0,0005.13,0002.51,0002.19
2024-01-11 08:26:00,SystemResetWarning,0808.5,5.00,000.00,018.7,017.5,000.0,027.2,020.0,10.0,0000.0,0005.23,0002.52,0002.17
2024-01-11 08:27:00,SystemResetWarning,0808.5,5.01,000.00,018.7,017.5,000.0,027.2,020.0,10.0,0000.0,0005.26,0002.51,0002.16
2024-01-11 08:28:00,SystemResetWarning,0808.5,5.00,000.00,018.7,017.4,000.0,027.2,020.0,10.0,0000.0,0004.94,0002.47,0002.15
2024-01-11 08:29:00,SystemResetWarning,0808.5,5.00,000.00,018.7,017.4,000.0,027.2,020.0,10.0,0000.0,0004.06,0002.43,0002.12
2024-01-11 08:30:00,SystemResetWarning,0808.5,5.00,000.00,018.7,017.4,000.0,027.2,020.0,10.0,0000.0,0004.04,0002.43,0002.11
2024-01-11 08:31:00,SystemResetWarning,0808.4,4.99,000.00,018.7,017.4,000.0,027.2,020.0,10.0,0000.0,0003.89,0002.40,0002.08
2024-01-11 08:32:00,SystemResetWarning,0808.4,5.00,000.00,018.7,017.7,000.0,027.2,020.3,9.9,0000.0,0003.91,0002.41,0002.07
2024-01-11 08:33:00,SystemResetWarning,0808.6,5.01,000.00,018.8,018.5,000.0,027.2,020.7,9.9,0000.0,0003.95,0002.41,0002.05
2024-01-11 08:34:00,SystemResetWarning,0808.6,4.98,000.00,019.0,018.9,000.0,027.2,020.7,9.8,0000.0,0003.84,0002.39,0002.03
2024-01-11 08:35:00,SystemResetWarning,0808.6,5.00,000.00,019.0,018.8,000.0,027.2,020.5,9.8,0000.0,0003.39,0002.37,0001.99
2024-01-11 08:36:00,SystemResetWarning,0808.6,5.01,000.00,019.0,018.7,000.0,027.2,020.3,9.7,0000.0,0003.40,0002.37,0001.98
2024-01-11 08:37:00,SystemResetWarning,0808.5,5.00,000.00,018.9,018.6,000.0,027.2,020.2,9.8,0000.0,0003.30,0002.34,0001.97
2024-01-11 08:38:00,SystemResetWarning,0808.5,5.00,000.00,018.9,018.4,000.0,027.2,020.1,9.8,0000.0,0003.18,0002.29,0001.94
2024-01-11 08:39:00,SystemResetWarning,0808.4,5.00,000.00,018.9,018.3,000.0,027.2,020.1,9.8,0000.0,0003.16,0002.25,0001.90
2024-01-11 08:40:00,SystemResetWarning,0808.3,5.00,000.00,018.8,018.1,000.0,027.2,020.0,9.8,0000.0,0003.08,0002.20,0001.87
2024-01-11 08:41:00,SystemResetWarning,0808.2,4.99,000.00,018.8,018.1,000.0,027.1,020.0,9.9,0000.0,0002.96,0002.13,0001.84
2024-01-11 08:42:00,SystemResetWarning,0808.3,5.00,000.00,018.8,018.0,000.0,027.2,020.0,9.9,0000.0,0003.02,0002.11,0001.82
2024-01-11 08:43:00,SystemResetWarning,0808.3,4.99,000.00,018.8,017.9,000.0,027.2,020.0,9.9,0000.0,0002.97,0002.09,0001.79
2024-01-11 08:44:00,SystemResetWarning,0808.3,5.01,000.00,018.8,017.9,000.0,027.2,020.0,9.9,0000.0,0002.88,0002.06,0001.77
2024-01-11 08:45:00,SystemResetWarning,0808.2,5.01,000.00,018.8,017.8,000.0,027.2,020.0,9.9,0000.0,0002.92,0002.06,0001.75
2024-01-11 08:46:00,SystemResetWarning,0808.2,5.00,000.00,018.7,017.8,000.0,027.2,020.0,9.9,0000.0,0002.81,0002.02,0001.74
2024-01-11 08:47:00,SystemResetWarning,0808.2,5.00,000.00,018.7,017.7,000.0,027.2,020.0,10.0,0000.0,0002.73,0001.98,0001.73
2024-01-11 08:48:00,SystemResetWarning,0808.2,4.99,000.00,018.7,017.7,000.0,027.2,020.0,10.0,0000.0,0003.19,0001.98,0001.73
2024-01-11 08:49:00,SystemResetWarning,0808.3,4.99,000.00,018.7,017.6,000.0,027.2,020.0,10.0,0000.0,0003.52,0001.99,0001.72
2024-01-11 08:50:00,SystemResetWarning,0808.3,5.00,000.00,018.7,017.6,000.0,027.2,020.0,10.0,0000.0,0003.77,0001.99,0001.72
2024-01-11 08:51:00,SystemResetWarning,0808.4,5.00,000.00,018.7,017.6,000.0,027.2,020.0,10.0,0000.0,0003.91,0001.98,0001.72
2024-01-11 08:52:00,SystemResetWarning,0808.4,5.00,000.00,018.7,017.6,000.0,027.2,020.0,10.0,0000.0,0003.92,0001.99,0001.72
2024-01-11 08:53:00,SystemResetWarning,0808.3,5.00,000.00,018.7,017.6,000.0,027.2,020.0,9.9,0000.0,0003.78,0001.96,0001.71
2024-01-11 08:54:00,SystemResetWarning,0808.3,5.00,000.00,018.7,017.5,000.0,027.2,020.0,9.9,0000.0,0003.73,0001.94,0001.70
2024-01-11 08:55:00,SystemResetWarning,0808.2,5.00,000.00,018.7,017.5,000.0,027.2,020.0,9.9,0000.0,0003.60,0001.88,0001.68
2024-01-11 08:56:00,SystemResetWarning,0808.2,5.00,000.00,018.7,017.5,000.0,027.2,020.0,9.9,0000.0,0003.56,0001.86,0001.68
2024-01-11 08:57:00,SystemResetWarning,0808.2,5.00,000.00,018.7,017.5,000.0,027.2,020.0,9.9,0000.0,0003.52,0001.85,0001.68
2024-01-11 08:58:00,SystemResetWarning,0808.2,5.00,000.00,018.7,017.5,000.0,027.2,020.0,9.8,0000.0,0003.83,0001.85,0001.65
2024-01-11 08:59:00,SystemResetWarning,0808.3,5.00,000.00,018.7,017.5,000.0,027.2,020.0,9.8,0000.0,0003.82,0001.84,0001.64
